This demonstration page uses our WeatherBlox Daily Observations layout. Learn more.

Hourly Observations for August 16, 2015

Temp ( °F °C ) Dew Point ( °F °C ) Humidity (%) Winds ( mph kmh ) Pressure ( in mb ) Visibility ( mi km ) Precip ( " mm )
12:15 am 00:15 Clear 73 22.5 61 15.9 66 66 S 12 19 29.94 1014 10 16.0934 0 0
12:35 am 00:35 Clear 73 22.6 60 15.5 64 64 S 9 15 29.94 1014 10 16.0934 0 0
12:55 am 00:55 Clear 72 22.4 59 15.2 64 64 S 9 15 29.94 1014 10 16.0934 0 0
1:15 am 01:15 Clear 72 22.2 60 15.3 65 65 S 10 17 29.94 1014 10 16.0934 0 0
1:35 am 01:35 Clear 72 22.1 59 15.1 65 65 S 10 17 29.94 1014 10 16.0934 0 0
1:55 am 01:55 Clear 71 21.6 59 15.1 67 67 S 7 11 29.94 1014 10 16.0934 0 0
2:15 am 02:15 Clear 70 21.3 59 15.1 68 68 S 12 19 29.94 1014 10 16.0934 0 0
2:35 am 02:35 Clear 70 21.3 59 14.8 67 67 S 7 11 29.94 1014 10 16.0934 0 0
2:55 am 02:55 Clear 69 20.8 58 14.6 68 68 S 8 13 29.94 1014 10 16.0934 0 0
3:15 am 03:15 Clear 69 20.5 58 14.5 69 69 S 6 9 29.94 1014 10 16.0934 0 0
3:35 am 03:35 Clear 68 20.1 58 14.3 69 69 S 8 13 29.91 1013 10 16.0934 0 0
3:55 am 03:55 Clear 68 20 58 14.5 71 71 S 6 9 29.91 1013 10 16.0934 0 0
4:15 am 04:15 Clear 67 19.6 58 14.5 73 73 S 8 13 29.91 1013 10 16.0934 0 0
4:35 am 04:35 Partly Cloudy 67 19.5 58 14.5 73 73 S 6 9 29.91 1013 10 16.0934 0 0
4:55 am 04:55 Mostly Cloudy 67 19.7 58 14.5 72 72 S 5 7 29.91 1013 10 16.0934 0 0
5:15 am 05:15 Mostly Cloudy 67 19.5 58 14.5 73 73 S 5 7 29.91 1013 10 16.0934 0 0
5:35 am 05:35 Cloudy with Nearby Thunderstorms 68 19.8 58 14.6 72 72 S 8 13 29.91 1013 10 16.0934 0 0
5:55 am 05:55 Cloudy with Nearby Thunderstorms 68 20.1 58 14.7 71 71 SSW 3 6 29.91 1013 10 16.0934 0 0
6:15 am 06:15 Mostly Cloudy 68 20.1 59 14.9 72 72 S 5 7 29.91 1013 10 16.0934 0 0
6:35 am 06:35 Mostly Cloudy with Nearby Thunderstorms 68 19.9 59 15.2 74 74 S 5 7 29.94 1014 10 16.0934 0 0
6:55 am 06:55 Mostly Cloudy with Thunderstorms 68 20.1 60 15.5 75 75 Calm 29.94 1014 10 16.0934 0 0
7:15 am 07:15 Cloudy with Nearby Thunderstorms 67 19.5 61 16.3 82 82 ENE 3 6 29.94 1014 10 16.0934 0 0
7:35 am 07:35 Cloudy 67 19.7 61 16.2 80 80 NNE 5 7 30 1016 10 16.0934 0 0
7:55 am 07:55 Cloudy with Thunderstorms 68 20 62 16.5 80 80 NNE 5 7 30 1016 10 16.0934 0 0
8:15 am 08:15 Cloudy with Light Thunderstorms 69 20.5 62 16.9 80 80 ESE 8 13 29.94 1014 5 8.0467 0.16 4.064
8:35 am 08:35 Cloudy with Light Thunderstorms 70 20.9 63 17.1 79 79 SE 10 17 29.94 1014 10 16.0934 0.16 4.064
8:55 am 08:55 Mostly Cloudy with Thunderstorms 69 20.8 62 16.9 78 78 S 6 9 29.94 1014 10 16.0934 0.16 4.064
9:15 am 09:15 Mostly Cloudy 69 20.5 62 16.9 80 80 S 7 11 29.94 1014 3 4.82802 0.07 1.778
9:35 am 09:35 Cloudy 68 20 64 17.5 86 86 S 9 15 29.91 1013 10 16.0934 0.1 2.54
9:55 am 09:55 Mostly Cloudy 68 20 64 17.5 86 86 S 9 15 29.91 1013 10 16.0934 0.1 2.54
10:15 am 10:15 Sunny with Nearby Thunderstorms 69 20.5 64 18 86 86 S 10 17 29.91 1013 10 16.0934 0 0
10:35 am 10:35 Sunny 71 21.4 65 18.6 84 84 SSW 8 13 29.91 1013 10 16.0934 0.01 0.254
10:55 am 10:55 Sunny with Light Rain 73 22.7 65 18.6 78 78 SSW 13 20 29.91 1013 10 16.0934 0.01 0.254
11:15 am 11:15 Partly Cloudy with Light Rain 73 23 66 19 78 78 S 14 22 29.85 1011 10 16.0934 0 0
11:35 am 11:35 Mostly Cloudy 75 23.9 66 19.1 75 75 S 12 19 29.85 1011 10 16.0934 0 0
11:55 am 11:55 Partly Cloudy 77 25 67 19.4 71 71 S 13 20 29.85 1011 10 16.0934 0 0
12:15 pm 12:15 Sunny 79 26.2 66 19.1 65 65 SSW 12 19 29.85 1011 10 16.0934 0 0
12:35 pm 12:35 Sunny 81 27.4 66 18.9 60 60 S 14 22 29.83 1010 10 16.0934 0 0
12:55 pm 12:55 Partly Cloudy 82 27.9 66 19.1 59 59 SSW 3 6 29.85 1011 10 16.0934 0 0
1:15 pm 13:15 Sunny 84 28.9 66 18.8 54 54 SSW 3 6 29.85 1011 10 16.0934 0 0
1:35 pm 13:35 Sunny 77 25.1 70 21.2 79 79 NNE 7 11 29.88 1012 10 16.0934 0 0
1:55 pm 13:55 Partly Cloudy 80 26.5 70 21 72 72 NE 10 17 29.85 1011 10 16.0934 0 0
2:15 pm 14:15 Mostly Cloudy with Nearby Thunderstorms 79 26.1 69 20.6 72 72 NE 10 17 29.88 1012 10 16.0934 0 0
2:35 pm 14:35 Mostly Cloudy 78 25.8 69 20.8 74 74 NE 9 15 29.88 1012 10 16.0934 0 0
2:55 pm 14:55 Mostly Cloudy 78 25.3 71 21.6 80 80 N 9 15 29.88 1012 10 16.0934 0 0
3:15 pm 15:15 Mostly Cloudy with Thunderstorms 78 25.4 71 21.7 80 80 N 8 13 29.88 1012 10 16.0934 0 0
3:35 pm 15:35 Cloudy with Thunderstorms 76 24.7 71 21.5 82 82 N 10 17 29.88 1012 10 16.0934 0 0
3:55 pm 15:55 Cloudy with Thunderstorms 74 23.6 69 20.5 83 83 N 14 22 29.85 1011 7 11.26538 0.01 0.254
4:15 pm 16:15 Cloudy with Light Thunderstorms 73 22.5 68 20.2 87 87 NW 17 28 29.91 1013 10 16.0934 0.01 0.254
4:35 pm 16:35 Windy with Storms Likely 73 22.5 67 19.3 82 82 W 23 37 29.91 1013 10 16.0934 0.02 0.508
4:55 pm 16:55 Cloudy with Heavy Thunderstorms 71 21.5 65 18.6 84 84 NNW 21 33 29.91 1013 1.5 2.41401 0.45 11.43
5:15 pm 17:15 Cloudy with Thunderstorms 71 21.4 65 18.4 83 83 NNW 12 19 29.91 1013 7 11.26538 0.04 1.016
5:35 pm 17:35 Cloudy 69 20.5 65 18.5 88 88 N 6 9 29.94 1014 10 16.0934 0.05 1.27
5:55 pm 17:55 Mostly Cloudy with Light Thunderstorms 70 21 66 19 88 88 ENE 7 11 29.91 1013 10 16.0934 0.06 1.524
6:15 pm 18:15 Mostly Cloudy with Light Thunderstorms 70 21.1 66 18.8 87 87 ENE 10 17 29.91 1013 10 16.0934 0.01 0.254
6:35 pm 18:35 Cloudy 70 21 66 18.7 87 87 ENE 6 9 29.91 1013 10 16.0934 0.03 0.762
6:55 pm 18:55 Cloudy with Nearby Thunderstorms 70 21.1 66 18.8 87 87 NE 6 9 29.91 1013 10 16.0934 0.06 1.524
7:15 pm 19:15 Cloudy with Nearby Thunderstorms 70 21 66 19 88 88 E 7 11 29.94 1014 7 11.26538 0.04 1.016
7:35 pm 19:35 Mostly Cloudy with Light Rain 69 20.8 66 19.1 90 90 SE 12 19 29.91 1013 10 16.0934 0.09 2.286
7:55 pm 19:55 Mostly Cloudy 70 21 67 19.3 90 90 SE 6 9 29.91 1013 10 16.0934 0.12 3.048
8:15 pm 20:15 Cloudy with Nearby Thunderstorms 69 20.6 67 19.3 92 92 NW 3 6 29.91 1013 7 11.26538 0.01 0.254
8:35 pm 20:35 Mostly Cloudy with Light Rain 70 21.3 67 19.7 91 91 Calm 29.91 1013 7 11.26538 0.03 0.762
8:55 pm 20:55 Partly Cloudy with Light Rain 70 21 67 19.5 91 91 WNW 5 7 29.91 1013 10 16.0934 0.04 1.016
9:15 pm 21:15 Mostly Cloudy with Light Rain 70 21.1 68 19.8 92 92 S 5 7 29.91 1013 10 16.0934 0.01 0.254
9:35 pm 21:35 Partly Cloudy with Light Rain 71 21.4 68 19.8 91 91 S 7 11 29.91 1013 10 16.0934 0.02 0.508
9:55 pm 21:55 Clear 71 21.9 67 19.6 87 87 Calm 29.91 1013 10 16.0934 0.02 0.508
10:15 pm 22:15 Clear 70 21.3 67 19.5 90 90 NNW 5 7 29.91 1013 10 16.0934 0 0
10:35 pm 22:35 Partly Cloudy 69 20.3 66 19.1 93 93 NNE 9 15 29.94 1014 7 11.26538 0 0
10:55 pm 22:55 Partly Cloudy 69 20.6 67 19.5 93 93 NE 9 15 29.94 1014 10 16.0934 0 0
11:15 pm 23:15 Mostly Cloudy 69 20.6 67 19.5 93 93 N 8 13 29.97 1015 7 11.26538 0 0
11:35 pm 23:35 Mostly Cloudy with Mist and Fog 69 20.5 67 19.3 93 93 NNE 10 17 29.97 1015 5 8.0467 0 0
11:55 pm 23:55 Partly Cloudy 68 20.1 66 19.1 94 94 NNE 8 13 30 1016 7 11.26538 0 0

Powered by AerisWeather